• en France
  • Liste des pays
  • À 7 jours
  • Température de l'eau
  • Carte satellitaire
  • Carte météo
  • Widgets météo
  • user-avatar
    Se connecter

    Météo par heure à Bondoukou

    Ce jour, 19 Août, Dimanche

    Heure Température Précipitation Vent Pression Humidité
    00:00 +24°C° 0 mm 2 m/s 730 mmHg 93%
    01:00 +24°C° 0,6 mm 2 m/s 730 mmHg 94%
    02:00 +24°C° 0,6 mm 2 m/s 730 mmHg 95%
    03:00 +23°C° 0,6 mm 2 m/s 729 mmHg 96%
    04:00 +23°C° 0,9 mm 2 m/s 729 mmHg 96%
    05:00 +23°C° 0,9 mm 2 m/s 730 mmHg 96%
    06:00 +23°C° 0,9 mm 2 m/s 730 mmHg 96%
    07:00 +24°C° 0,5 mm 2 m/s 730 mmHg 94%
    08:00 +24°C° 0,5 mm 2 m/s 730 mmHg 93%
    09:00 +24°C° 0,5 mm 3 m/s 731 mmHg 92%
    10:00 +26°C° 0,1 mm 3 m/s 731 mmHg 85%
    11:00 +27°C° 0,1 mm 3 m/s 731 mmHg 79%
    12:00 +28°C° 0,1 mm 3 m/s 730 mmHg 73%
    13:00 +29°C° 0,3 mm 3 m/s 730 mmHg 72%
    14:00 +29°C° 0,3 mm 3 m/s 729 mmHg 70%
    15:00 +30°C° 0,3 mm 3 m/s 729 mmHg 68%
    16:00 +29°C° 0,4 mm 3 m/s 729 mmHg 74%
    17:00 +28°C° 0,4 mm 2 m/s 729 mmHg 80%
    18:00 +27°C° 0,4 mm 2 m/s 729 mmHg 85%
    19:00 +26°C° 0,8 mm 2 m/s 730 mmHg 89%
    20:00 +25°C° 0,8 mm 2 m/s 730 mmHg 92%
    21:00 +24°C° 0,8 mm 2 m/s 731 mmHg 95%
    22:00 +24°C° 1 mm 2 m/s 731 mmHg 95%
    23:00 +24°C° 1 mm 2 m/s 731 mmHg 95%

    Demain, 20 Août, Lundi

    Heure Température Précipitation Vent Pression Humidité
    00:00 +23°C° 1 mm 2 m/s 731 mmHg 95%
    01:00 +23°C° 0,1 mm 2 m/s 731 mmHg 96%
    02:00 +23°C° 0,1 mm 2 m/s 731 mmHg 97%
    03:00 +23°C° 0,1 mm 2 m/s 730 mmHg 97%
    04:00 +23°C° 0 mm 2 m/s 730 mmHg 97%
    05:00 +23°C° 0 mm 2 m/s 730 mmHg 97%
    06:00 +23°C° 0 mm 2 m/s 730 mmHg 96%
    07:00 +24°C° 0 mm 2 m/s 731 mmHg 94%
    08:00 +24°C° 0 mm 2 m/s 731 mmHg 92%
    09:00 +25°C° 0 mm 3 m/s 732 mmHg 90%
    10:00 +26°C° 0,1 mm 3 m/s 732 mmHg 84%
    11:00 +27°C° 0,1 mm 3 m/s 731 mmHg 79%
    12:00 +28°C° 0,1 mm 3 m/s 731 mmHg 73%
    13:00 +28°C° 0,3 mm 3 m/s 730 mmHg 72%
    14:00 +29°C° 0,3 mm 3 m/s 730 mmHg 70%
    15:00 +30°C° 0,3 mm 3 m/s 729 mmHg 69%
    16:00 +29°C° 0,3 mm 2 m/s 729 mmHg 73%
    17:00 +28°C° 0,3 mm 2 m/s 729 mmHg 78%
    18:00 +27°C° 0,3 mm 1 m/s 728 mmHg 82%
    19:00 +26°C° 1,3 mm 1 m/s 729 mmHg 86%
    20:00 +25°C° 1,3 mm 2 m/s 730 mmHg 89%
    21:00 +24°C° 1,3 mm 2 m/s 731 mmHg 93%
    22:00 +24°C° 0,2 mm 2 m/s 731 mmHg 93%
    23:00 +24°C° 0,2 mm 2 m/s 731 mmHg 94%

    Après-demain, 21 Août, Mardi

    Heure Température Précipitation Vent Pression Humidité
    00:00 +23°C° 0,2 mm 2 m/s 731 mmHg 94%
    01:00 +23°C° 0 mm 2 m/s 731 mmHg 95%
    02:00 +23°C° 0 mm 2 m/s 730 mmHg 95%
    03:00 +23°C° 0 mm 2 m/s 730 mmHg 95%
    04:00 +23°C° 0 mm 2 m/s 730 mmHg 96%
    05:00 +23°C° 0 mm 2 m/s 730 mmHg 96%
    06:00 +21°C° 0 mm 2 m/s 730 mmHg 96%
    07:00 +23°C° 0 mm 2 m/s 731 mmHg 91%
    08:00 +24°C° 0 mm 3 m/s 731 mmHg 87%
    09:00 +26°C° 0 mm 3 m/s 732 mmHg 83%
    10:00 +27°C° 0 mm 3 m/s 732 mmHg 75%
    11:00 +29°C° 0 mm 3 m/s 731 mmHg 67%
    12:00 +30°C° 0 mm 3 m/s 731 mmHg 59%
    13:00 +31°C° 0,4 mm 3 m/s 730 mmHg 61%
    14:00 +31°C° 0,4 mm 3 m/s 729 mmHg 62%
    15:00 +31°C° 0,4 mm 3 m/s 729 mmHg 64%
    16:00 +29°C° 0,9 mm 2 m/s 729 mmHg 72%
    17:00 +28°C° 0,9 mm 2 m/s 728 mmHg 80%
    18:00 +26°C° 0,9 mm 1 m/s 728 mmHg 87%
    19:00 +26°C° 0,8 mm 1 m/s 729 mmHg 89%
    20:00 +25°C° 0,8 mm 1 m/s 730 mmHg 90%
    21:00 +24°C° 0,8 mm 1 m/s 730 mmHg 92%
    22:00 +24°C° 0 mm 1 m/s 730 mmHg 92%
    23:00 +24°C° 0 mm 1 m/s 730 mmHg 93%

    22 Août, Mercredi

    Heure Température Précipitation Vent Pression Humidité
    00:00 +23°C° 0 mm 1 m/s 730 mmHg 93%
    01:00 +23°C° 0 mm 1 m/s 730 mmHg 94%
    02:00 +23°C° 0 mm 1 m/s 729 mmHg 95%
    03:00 +23°C° 0 mm 1 m/s 729 mmHg 96%
    04:00 +23°C° 0 mm 1 m/s 729 mmHg 96%
    05:00 +22°C° 0 mm 1 m/s 729 mmHg 97%
    06:00 +22°C° 0 mm 1 m/s 729 mmHg 97%
    07:00 +23°C° 0 mm 1 m/s 730 mmHg 94%
    08:00 +24°C° 0 mm 2 m/s 731 mmHg 90%
    09:00 +25°C° 0 mm 2 m/s 732 mmHg 86%
    10:00 +27°C° 0,3 mm 2 m/s 732 mmHg 81%
    11:00 +28°C° 0,3 mm 2 m/s 731 mmHg 76%
    12:00 +29°C° 0,3 mm 2 m/s 731 mmHg 72%
    13:00 +29°C° 0,9 mm 2 m/s 730 mmHg 71%
    14:00 +30°C° 0,9 mm 2 m/s 729 mmHg 71%
    15:00 +30°C° 0,9 mm 2 m/s 728 mmHg 71%
    16:00 +29°C° 1,1 mm 2 m/s 728 mmHg 76%
    17:00 +28°C° 1,1 mm 1 m/s 728 mmHg 82%
    18:00 +27°C° 1,1 mm 1 m/s 728 mmHg 88%
    19:00 +26°C° 1,2 mm 1 m/s 729 mmHg 89%
    20:00 +25°C° 1,2 mm 1 m/s 730 mmHg 91%
    21:00 +24°C° 1,2 mm 1 m/s 730 mmHg 93%
    22:00 +24°C° 0,8 mm 2 m/s 730 mmHg 94%
    23:00 +24°C° 0,8 mm 2 m/s 730 mmHg 95%

    23 Août, Jeudi

    Heure Température Précipitation Vent Pression Humidité
    00:00 +23°C° 0,8 mm 2 m/s 730 mmHg 96%
    01:00 +23°C° 0,2 mm 2 m/s 730 mmHg 96%
    02:00 +23°C° 0,2 mm 2 m/s 729 mmHg 97%
    03:00 +23°C° 0,2 mm 2 m/s 729 mmHg 97%
    04:00 +23°C° 0,3 mm 2 m/s 729 mmHg 97%
    05:00 +23°C° 0,3 mm 2 m/s 729 mmHg 97%
    06:00 +23°C° 0,3 mm 2 m/s 730 mmHg 97%
    07:00 +23°C° 0,4 mm 2 m/s 730 mmHg 96%
    08:00 +24°C° 0,4 mm 2 m/s 731 mmHg 95%
    09:00 +24°C° 0,4 mm 3 m/s 732 mmHg 94%
    10:00 +26°C° 0,6 mm 3 m/s 731 mmHg 88%
    11:00 +27°C° 0,6 mm 3 m/s 730 mmHg 83%
    12:00 +28°C° 0,6 mm 3 m/s 730 mmHg 78%
    13:00 +28°C° 1 mm 2 m/s 729 mmHg 77%
    14:00 +29°C° 1 mm 2 m/s 728 mmHg 76%
    15:00 +29°C° 1 mm 2 m/s 728 mmHg 75%
    16:00 +28°C° 1,8 mm 1 m/s 728 mmHg 80%
    17:00 +27°C° 1,8 mm 1 m/s 728 mmHg 85%
    18:00 +26°C° 1,8 mm 1 m/s 728 mmHg 90%
    19:00 +25°C° 1,5 mm 1 m/s 729 mmHg 91%
    20:00 +25°C° 1,5 mm 1 m/s 729 mmHg 93%
    21:00 +24°C° 1,5 mm 2 m/s 730 mmHg 94%
    22:00 +24°C° 0,1 mm 2 m/s 730 mmHg 95%
    23:00 +24°C° 0,1 mm 2 m/s 730 mmHg 96%

    24 Août, Vendredi

    Heure Température Précipitation Vent Pression Humidité
    00:00 +22°C° 0,1 mm 3 m/s 729 mmHg 96%
    01:00 +22°C° 0,1 mm 3 m/s 729 mmHg 96%
    02:00 +22°C° 0,1 mm 3 m/s 729 mmHg 96%
    03:00 +22°C° 0,1 mm 3 m/s 728 mmHg 96%
    04:00 +22°C° 0,1 mm 3 m/s 729 mmHg 96%
    05:00 +23°C° 0,1 mm 2 m/s 729 mmHg 96%
    06:00 +23°C° 0,1 mm 2 m/s 729 mmHg 96%
    07:00 +24°C° 0,1 mm 2 m/s 729 mmHg 95%
    08:00 +24°C° 0,1 mm 3 m/s 730 mmHg 93%
    09:00 +24°C° 0,1 mm 3 m/s 730 mmHg 91%
    10:00 +26°C° 0,2 mm 3 m/s 730 mmHg 87%
    11:00 +27°C° 0,2 mm 3 m/s 729 mmHg 82%
    12:00 +28°C° 0,2 mm 3 m/s 729 mmHg 78%
    13:00 +28°C° 0,5 mm 3 m/s 728 mmHg 78%
    14:00 +29°C° 0,5 mm 3 m/s 727 mmHg 77%
    15:00 +29°C° 0,5 mm 3 m/s 727 mmHg 77%
    16:00 +28°C° 1,5 mm 2 m/s 727 mmHg 82%
    17:00 +27°C° 1,5 mm 2 m/s 727 mmHg 88%
    18:00 +26°C° 1,5 mm 1 m/s 727 mmHg 93%
    19:00 +25°C° 1,1 mm 1 m/s 728 mmHg 94%
    20:00 +25°C° 1,1 mm 2 m/s 728 mmHg 94%
    21:00 +24°C° 1,1 mm 2 m/s 729 mmHg 95%
    22:00 +24°C° 0,5 mm 2 m/s 729 mmHg 96%
    23:00 +24°C° 0,5 mm 3 m/s 729 mmHg 96%
    Voir plus